TimeEDT,TemperatureF,Dew PointF,Humidity,Sea Level PressureIn,VisibilityMPH,Wind Direction,Wind SpeedMPH,Gust SpeedMPH,PrecipitationIn,Events,Conditions,WindDirDegrees,DateUTC
12:54 AM,34.0,24.1,67,29.55,10.0,North,9.2,-,N/A,,Overcast,360,2013-03-26 04:54:00
1:54 AM,33.1,26.1,75,29.56,10.0,North,9.2,-,0.00,,Overcast,350,2013-03-26 05:54:00
2:54 AM,34.0,24.1,67,29.56,10.0,North,13.8,-,N/A,,Overcast,10,2013-03-26 06:54:00
3:54 AM,33.1,23.0,66,29.57,10.0,North,9.2,-,N/A,,Overcast,350,2013-03-26 07:54:00
4:02 AM,33.1,23.0,66,29.54,10.0,North,9.2,-,N/A,,Overcast,350,2013-03-26 08:02:00
4:35 AM,33.1,24.1,70,29.55,10.0,North,8.1,-,N/A,,Overcast,360,2013-03-26 08:35:00
4:54 AM,33.1,23.0,66,29.58,10.0,North,10.4,-,N/A,,Overcast,360,2013-03-26 08:54:00
5:54 AM,33.1,24.1,70,29.61,10.0,North,6.9,-,N/A,,Overcast,360,2013-03-26 09:54:00
6:54 AM,32.0,23.0,69,29.63,10.0,NNW,4.6,-,N/A,,Overcast,340,2013-03-26 10:54:00
7:54 AM,33.1,24.1,70,29.66,10.0,NW,6.9,-,N/A,,Overcast,320,2013-03-26 11:54:00
8:54 AM,34.0,24.1,67,29.68,10.0,North,8.1,-,0.00,Snow,Light Snow,350,2013-03-26 12:54:00
9:54 AM,33.1,25.0,72,29.69,9.0,North,-9999.0,-,0.00,,Unknown,0,2013-03-26 13:54:00
10:21 AM,34.0,24.1,67,29.66,10.0,North,-9999.0,-,N/A,,Overcast,0,2013-03-26 14:21:00
10:54 AM,35.1,25.0,67,29.70,10.0,North,-9999.0,-,N/A,,Overcast,0,2013-03-26 14:54:00
11:50 AM,-9999,-9999,N/A,29.67,10.0,West,5.8,-,N/A,,Overcast,270,2013-03-26 15:50:00
11:54 AM,-9999,-9999,N/A,29.67,10.0,West,4.6,-,N/A,,Overcast,280,2013-03-26 15:54:00
12:54 PM,37.9,25.0,60,29.70,10.0,WNW,8.1,-,N/A,,Overcast,300,2013-03-26 16:54:00
1:54 PM,39.0,25.0,57,29.70,-9999.0,WNW,9.2,-,N/A,,Overcast,300,2013-03-26 17:54:00
2:54 PM,41.0,21.0,45,29.70,10.0,Variable,5.8,-,N/A,,Mostly Cloudy,0,2013-03-26 18:54:00
3:54 PM,42.1,21.0,43,29.70,10.0,NW,13.8,-,N/A,,Mostly Cloudy,310,2013-03-26 19:54:00
4:54 PM,42.1,19.0,40,29.71,10.0,WNW,11.5,-,N/A,,Scattered Clouds,300,2013-03-26 20:54:00
5:54 PM,41.0,19.9,43,29.73,10.0,WNW,10.4,-,N/A,,Mostly Cloudy,290,2013-03-26 21:54:00
6:54 PM,39.0,19.0,45,29.75,10.0,WNW,10.4,-,N/A,,Clear,300,2013-03-26 22:54:00
7:54 PM,37.0,19.0,48,29.77,10.0,WNW,10.4,-,N/A,,Clear,300,2013-03-26 23:54:00
8:54 PM,36.0,18.0,48,29.78,10.0,NW,12.7,-,N/A,,Clear,310,2013-03-27 00:54:00
9:54 PM,34.0,18.0,52,29.80,10.0,WNW,11.5,-,N/A,,Clear,300,2013-03-27 01:54:00
10:54 PM,34.0,16.0,48,29.79,10.0,NW,12.7,-,N/A,,Clear,310,2013-03-27 02:54:00
11:54 PM,33.1,16.0,50,29.77,10.0,NW,11.5,-,N/A,,Clear,310,2013-03-27 03:54:00